FW3849 Weather Reports


time (UTC)temp
C
wind
direction
speed
KPH
gust
KPH
rain 1hr
cm
rain 24hr
cm
rain mn
cm
humidity
%
barometer
mb
20260504214035 29 200 14.5 20.9 0.00 0.00 0.00 26 1007.7
20260504213534 29 212 12.9 19.3 0.00 0.00 0.00 26 1007.9
20260504213040 29 202 12.9 19.3 0.00 0.00 0.00 27 1007.9
20260504212534 30 193 12.9 19.3 0.00 0.00 0.00 26 1007.9
20260504212032 29 208 4.8 22.5 0.00 0.00 0.00 27 1008.0
20260504211531 29 271 12.9 22.5 0.00 0.00 0.00 28 1008.2
20260504211029 29 191 9.7 14.5 0.00 0.00 0.00 28 1008.2
20260504210529 28 179 12.9 25.7 0.00 0.00 0.00 28 1008.3
20260504205528 28 202 11.3 25.7 0.00 0.00 0.00 28 1008.7
20260504205027 28 200 16.1 20.9 0.00 0.00 0.00 28 1008.7
20260504204528 28 218 8.0 20.9 0.00 0.00 0.00 29 1008.8
20260504204025 28 247 12.9 20.9 0.00 0.00 0.00 29 1008.7
20260504203524 28 214 12.9 20.9 0.00 0.00 0.00 29 1008.9
20260504203024 28 207 11.3 20.9 0.00 0.00 0.00 31 1008.9
20260504202522 28 201 11.3 20.9 0.00 0.00 0.00 30 1008.9
20260504202021 28 177 11.3 20.9 0.00 0.00 0.00 31 1009.1
20260504201519 28 189 14.5 20.9 0.00 0.00 0.00 31 1009.3
20260504201018 27 206 8.0 16.1 0.00 0.00 0.00 32 1009.3
20260504200518 27 248 9.7 20.9 0.00 0.00 0.00 32 1009.4
20260504195519 27 223 8.0 19.3 0.00 0.00 0.00 32 1009.4
20260504195019 27 198 9.7 19.3 0.00 0.00 0.00 32 1009.6
20260504194521 27 214 9.7 19.3 0.00 0.00 0.00 33 1009.6
20260504194021 27 216 12.9 20.9 0.00 0.00 0.00 33 1009.7
20260504193519 27 218 14.5 20.9 0.00 0.00 0.00 32 1009.6
20260504193017 27 219 8.0 20.9 0.00 0.00 0.00 33 1009.7
20260504192516 27 258 6.4 19.3 0.00 0.00 0.00 32 1009.9
20260504192016 27 256 9.7 19.3 0.00 0.00 0.00 33 1010.0
20260504191527 27 208 12.9 19.3 0.00 0.00 0.00 33 1009.9
20260504191016 27 250 12.9 17.7 0.00 0.00 0.00 32 1009.9
20260504190516 27 245 11.3 17.7 0.00 0.00 0.00 32 1009.9
20260504185514 27 212 9.7 19.3 0.00 0.00 0.00 32 1010.0
20260504185013 27 204 11.3 22.5 0.00 0.00 0.00 32 1009.9
20260504184515 27 243 16.1 22.5 0.00 0.00 0.00 33 1010.0
20260504184012 27 228 11.3 20.9 0.00 0.00 0.00 32 1010.1
20260504183511 27 233 14.5 20.9 0.00 0.00 0.00 33 1010.3
20260504183020 27 173 9.7 20.9 0.00 0.00 0.00 33 1010.6
20260504182507 26 202 11.3 22.5 0.00 0.00 0.00 33 1010.7
20260504182007 26 216 14.5 22.5 0.00 0.00 0.00 33 1010.8
20260504181506 26 197 12.9 19.3 0.00 0.00 0.00 33 1010.8
20260504181005 26 202 14.5 19.3 0.00 0.00 0.00 36 1010.8
20260504180509 25 198 11.3 20.9 0.00 0.00 0.00 37 1011.0
20260504175604 25 206 8.0 20.9 0.00 0.00 0.00 37 1011.0
20260504175003 25 228 9.7 22.5 0.00 0.00 0.00 37 1011.2
20260504174503 25 187 12.9 22.5 0.00 0.00 0.00 37 1011.3
20260504174001 25 196 12.9 20.9 0.00 0.00 0.00 38 1011.1
20260504173503 25 212 11.3 19.3 0.00 0.00 0.00 38 1011.2
20260504173106 25 209 12.9 19.3 0.00 0.00 0.00 38 1011.3
20260504172558 24 238 11.3 20.9 0.00 0.00 0.00 39 1011.6
20260504172057 24 200 11.3 20.9 0.00 0.00 0.00 40 1011.7
20260504171557 23 206 4.8 20.9 0.00 0.00 0.00 40 1011.6
20260504171055 23 142 8.0 17.7 0.00 0.00 0.00 43 1011.7
20260504170553 22 171 6.4 20.9 0.00 0.00 0.00 43 1011.6
20260504151035 20 205 16.1 25.7 0.00 0.00 0.00 50 1012.5
20260504150536 19 243 14.5 24.1 0.00 0.00 0.00 51 1012.4
20260504141028 18 195 4.8 16.1 0.00 0.00 0.00 54 1012.5
20260504140528 17 194 11.3 19.3 0.00 0.00 0.00 55 1012.3
20260504130522 17 143 6.4 12.9 0.00 0.00 0.00 55 1012.3
20260504110508 18 204 8.0 14.5 0.00 0.00 0.00 47 1011.5
20260504100501 18 137 3.2 9.7 0.00 0.00 0.00 45 1011.7
20260504081555 19 191 4.8 14.5 0.00 0.00 0.00 40 1012.5
20260504081057 20 168 8.0 17.7 0.00 0.00 0.00 40 1012.4
20260504080554 20 188 9.7 17.7 0.00 0.00 0.00 40 1012.6
20260504050541 20 194 8.0 19.3 0.00 0.00 0.00 39 1014.6
20260504045542 20 188 11.3 20.9 0.00 0.00 0.00 39 1014.7
20260504045041 20 206 9.7 16.1 0.00 0.00 0.00 39 1014.7
20260504044547 20 206 8.0 19.3 0.00 0.00 0.00 38 1014.9
20260504044041 20 205 12.9 19.3 0.00 0.00 0.00 38 1015.1
20260504043542 20 183 6.4 16.1 0.00 0.00 0.00 39 1015.1
20260504043041 20 180 4.8 14.5 0.00 0.00 0.00 39 1015.0
20260504042541 20 202 8.0 14.5 0.00 0.00 0.00 39 1015.0
20260504042041 21 151 6.4 17.7 0.00 0.00 0.00 39 1015.1
20260504041540 21 180 6.4 24.1 0.00 0.00 0.00 38 1015.1
20260504041040 21 193 14.5 24.1 0.00 0.00 0.00 38 1015.1
20260504040540 21 202 14.5 24.1 0.00 0.00 0.00 38 1015.0
20260504035547 21 204 14.5 24.1 0.00 0.00 0.00 38 1015.0
20260504035044 21 185 14.5 24.1 0.00 0.00 0.00 38 1014.8
20260504034555 21 191 12.9 19.3 0.00 0.00 0.00 38 1014.8
20260504034040 21 205 12.9 27.4 0.00 0.00 0.00 38 1015.0
20260504033541 21 213 12.9 27.4 0.00 0.00 0.00 37 1015.0
20260504033103 21 206 12.9 27.4 0.00 0.00 0.00 37 1015.0
20260504032541 21 213 14.5 25.7 0.00 0.00 0.00 37 1014.8
20260504032040 21 177 12.9 25.7 0.00 0.00 0.00 37 1014.7
20260504031541 21 196 14.5 20.9 0.00 0.00 0.00 37 1014.7
20260504031040 21 194 11.3 20.9 0.00 0.00 0.00 37 1014.8
20260504030539 21 196 11.3 19.3 0.00 0.00 0.00 37 1015.0
20260504030140 21 198 9.7 17.7 0.00 0.00 0.00 37 1015.0
20260504025538 21 205 11.3 17.7 0.00 0.00 0.00 36 1015.0
20260504025038 21 186 6.4 20.9 0.00 0.00 0.00 36 1015.0
20260504024539 21 174 6.4 20.9 0.00 0.00 0.00 36 1015.1
20260504024037 21 181 8.0 20.9 0.00 0.00 0.00 36 1015.2
20260504023538 21 193 11.3 20.9 0.00 0.00 0.00 36 1015.2
20260504023051 21 181 12.9 20.9 0.00 0.00 0.00 36 1014.9
20260504022537 21 196 11.3 25.7 0.00 0.00 0.00 36 1014.9
20260504022036 21 208 12.9 25.7 0.00 0.00 0.00 36 1015.0
20260504021537 21 182 12.9 25.7 0.00 0.00 0.00 35 1014.8
20260504021037 22 198 16.1 25.7 0.00 0.00 0.00 35 1014.7
20260504020537 22 189 16.1 22.5 0.00 0.00 0.00 34 1014.5
20260504015537 22 198 14.5 22.5 0.00 0.00 0.00 34 1014.7
20260504015038 22 194 12.9 22.5 0.00 0.00 0.00 33 1014.6
20260504014546 22 193 12.9 24.1 0.00 0.00 0.00 34 1014.5
20260504014035 22 193 14.5 22.5 0.00 0.00 0.00 33 1014.4
20260504013535 22 194 14.5 22.5 0.00 0.00 0.00 33 1014.4
20260504013043 22 198 14.5 20.9 0.00 0.00 0.00 33 1014.4
20260504012534 22 183 9.7 19.3 0.00 0.00 0.00 33 1014.5
20260504012033 22 184 12.9 25.7 0.00 0.00 0.00 33 1014.7
20260504011533 22 202 12.9 22.5 0.00 0.00 0.00 32 1014.6
20260504011032 22 210 14.5 24.1 0.00 0.00 0.00 32 1014.8
20260504010531 22 191 12.9 25.7 0.00 0.00 0.00 32 1014.7
20260504005531 22 189 14.5 29.0 0.00 0.00 0.00 32 1014.9
20260504005031 23 204 14.5 22.5 0.00 0.00 0.00 32 1014.8
20260504004535 23 191 14.5 24.1 0.00 0.00 0.00 31 1014.9
20260504004030 23 203 17.7 24.1 0.00 0.00 0.00 30 1015.0
20260504003531 23 212 14.5 22.5 0.00 0.00 0.00 31 1015.0
20260504003034 23 176 14.5 22.5 0.00 0.00 0.00 31 1014.9
20260504002529 23 166 16.1 25.7 0.00 0.00 0.00 30 1014.9
20260504002031 23 194 14.5 25.7 0.00 0.00 0.00 30 1014.9
20260504001530 23 179 17.7 25.7 0.00 0.00 0.00 30 1014.9
20260504001030 23 192 14.5 30.6 0.00 0.00 0.00 29 1014.9
20260504000527 23 193 16.1 30.6 0.00 0.00 0.00 29 1015.0
20260503235528 24 191 14.5 29.0 0.00 0.00 0.00 28 1015.3
20260503235028 24 232 16.1 29.0 0.00 0.00 0.00 27 1015.1
20260503234628 24 188 16.1 22.5 0.00 0.00 0.00 26 1015.2
20260503234027 25 196 8.0 22.5 0.00 0.00 0.00 27 1015.4
20260503233529 25 206 14.5 22.5 0.00 0.00 0.00 26 1015.4
20260503233027 25 204 14.5 22.5 0.00 0.00 0.00 26 1015.5
20260503232527 25 204 14.5 27.4 0.00 0.00 0.00 26 1015.4
20260503232026 25 189 12.9 20.9 0.00 0.00 0.00 26 1015.4
20260503231530 25 231 12.9 22.5 0.00 0.00 0.00 25 1015.4
20260503231026 25 221 14.5 24.1 0.00 0.00 0.00 25 1015.3
20260503230526 25 202 17.7 25.7 0.00 0.00 0.00 24 1015.3
20260503225525 25 216 12.9 25.7 0.00 0.00 0.00 24 1015.2
20260503225024 25 189 14.5 25.7 0.00 0.00 0.00 24 1015.3
20260503224523 25 193 11.3 24.1 0.00 0.00 0.00 24 1015.3
20260503224023 25 185 11.3 24.1 0.00 0.00 0.00 25 1015.5
20260503223526 25 209 14.5 27.4 0.00 0.00 0.00 24 1015.4
20260503223024 25 197 16.1 27.4 0.00 0.00 0.00 24 1015.3
20260503222522 25 204 14.5 25.7 0.00 0.00 0.00 24 1015.3
20260503222021 25 193 12.9 25.7 0.00 0.00 0.00 24 1015.5
20260503221520 25 228 11.3 27.4 0.00 0.00 0.00 22 1015.7
20260503221020 25 216 14.5 27.4 0.00 0.00 0.00 23 1015.7
20260503220521 25 227 12.9 22.5 0.00 0.00 0.00 24 1015.7
20260503220119 25 227 12.9 22.5 0.00 0.00 0.00 24 1016.0
20260503215520 25 151 11.3 20.9 0.00 0.00 0.00 23 1016.1
20260503215019 25 181 12.9 27.4 0.00 0.00 0.00 23 1016.4
20260503214519 25 187 14.5 27.4 0.00 0.00 0.00 24 1016.4